Regional Weather Roundup
Issued by NWS

Home | Current Version | Previous Version | Text Only | Print | Product List | Glossary Off
Versions: 1 2 3 4 5 6 7 8 9 10 11 12 13 14 15 16 17 18 19 20 21 22 23 24 25 26 27 28 29 30 31 32 33 34 35 36 37 38 39 40 41 42 43 44 45 46 47 48 49 50

000
ASUS45 KBOU 231307
RWRCO

WEATHER ROUNDUP FOR COLORADO
NATIONAL WEATHER SERVICE DENVER/BOULDER CO
700 AM MDT THU MAR 23 2017

NOTE: "FAIR" INDICATES FEW OR NO CLOUDS BELOW 12000 FEET WITH NO
SIGNIFICANT WEATHER AND/OR OBSTRUCTIONS TO VISIBILITY.

COZ001>005-013-030-031-231400-
...NORTHWEST COLORADO...

CITY           SKY/WX    TMP DP  RH WIND       PRES   REMARKS
CRAIG          FAIR      38  31  76 CALM      29.75R
HAYDEN         FAIR      43  23  45 E3        29.75S
MEEKER         FAIR      40  32  73 NE3       29.75S
MOUNT WERNER   NOT AVBL
STEAMBOAT SPGS FAIR      44  28  53 E13       29.76F
WALDEN         NOT AVBL
$$

COZ006>008-011-231400-
...WEST CENTRAL VALLEYS...

CITY           SKY/WX    TMP DP  RH WIND       PRES   REMARKS
GRAND JUNCTION FAIR      50  40  68 VRB3      29.74R
MONTROSE       FAIR      49  27  42 SW9       29.79S
EAGLE          PTCLDY    37  32  81 CALM      29.83F
RIFLE          FAIR      55  23  28 S10G23    29.74S
DELTA          FAIR      51  26  38 W6        29.78S
NUCLA          FAIR      45  34  65 SW8       29.85S
$$

COZ017>023-064>068-231400-
...SOUTHWEST COLORADO...

CITY           SKY/WX    TMP DP  RH WIND       PRES   REMARKS
DURANGO        CLOUDY    40  25  55 NE5       29.87F
CORTEZ         FAIR      39  32  76 NW5       29.84S
PAGOSA SPRINGS MOCLDY    38  26  63 CALM      29.92S
TELLURIDE      CLOUDY    41  18  40 S17G28    29.90S
WOLF CREEK PAS CLOUDY    25  23  93 SW22G33   30.03F WCI  10
$$

COZ009-010-012-014-032>034-037-058>063-231400-
...CENTRAL COLORADO...

CITY           SKY/WX    TMP DP  RH WIND       PRES   REMARKS
ASPEN          CLOUDY    41  31  67 S6        29.83S
BUENA VISTA    FAIR      43  21  41 SE7       29.85F
COPPER MTN     FAIR      32  21  64 S14G23    29.97F WCI  22
BERTHOUD PASS  FAIR      27  14  59 SW5       29.98F WCI  21
COTTONWOOD PAS FAIR      43  12  28 SW9       29.92S
GUNNISON       FAIR      34  25  69 CALM      29.86S
KREMMLING      MOCLDY    41  30  65 CALM      29.85S
LEADVILLE      MOCLDY    32  23  69 SE6       29.90F WCI  26
MONARCH PASS   FAIR      30  16  55 SW35G45   30.07F WCI  14
SALIDA         MOCLDY    48  22  36 SW10      29.93S
SUNLIGHT       FAIR      28  21  74 S13G26    29.93S WCI  18
WILKERSON PASS FAIR      32  16  51 S8G20     29.98F WCI  25
$$

COZ069>075-231400-
...SAN LUIS VALLEY/SANGRE DE CRISTO MOUNTAINS...

CITY           SKY/WX    TMP DP  RH WIND       PRES   REMARKS
ALAMOSA        FAIR      41  20  43 W8        29.87F
LA VETA PASS   NOT AVBL
SAGUACHE       FAIR      39  19  45 W3        29.89S
$$

COZ035-036-038>040-231400-
...NORTHERN COLORADO FRONT RANGE...

CITY           SKY/WX    TMP DP  RH WIND       PRES   REMARKS
DENVER INTL AP FAIR      46  28  49 SW12      29.70F
DMNS CITY PARK   N/A     47  30  51 W5        29.71S
AURORA         PTCLDY    46  28  50 S14       29.73S
FRONT RANGE AP PTCLDY    50  30  46 S9G20     29.72F
ERIE MUNI ARPT FAIR      32  29  86 SW5       29.72S WCI  28
BOULDER MUN AP FAIR      41  30  65 S3        29.71S
CENTENNIAL     FAIR      55  20  25 SW15      29.73F
BROOMFIELD     PTCLDY    46  28  49 VRB5      29.73S
FORT COLLINS   FAIR      39  36  89 CALM      29.71S
LONGMONT       FAIR      34  28  77 W6        29.73S WCI  29
$$

COZ041-046-047-076>085-087-088-231400-
...PIKES PEAK/PALMER DIVIDE AND SOUTHERN FOOTHILLS...

CITY           SKY/WX    TMP DP  RH WIND       PRES   REMARKS
COLO. SPRINGS  FAIR      42  33  70 NE8       29.78S
A. F. ACADEMY  FAIR      37  31  77 NW5       29.78F
SCHRIEVER AFB  FAIR      40  33  76 N3        29.78S
ELLICOTT         N/A    N/A N/A N/A N3        29.77S
FALCON         FAIR      35  29  78 W8        29.81S WCI  29
FORT CARSON    CLEAR     37  31  79 N6        29.76S
LIMON          FOG       38  38 100 CALM      29.75F VSB<1/4
MONUMENT HILL  FAIR      37  30  75 S7        29.81F
TRINIDAD       FAIR      50  39  66 W13       29.78F
$$

COZ042>045-048>051-090-091-231400-
...NORTHEAST COLORADO...

CITY           SKY/WX    TMP DP  RH WIND       PRES   REMARKS
GREELEY ARPT   FAIR      33  29  85 W5        29.71S WCI  29
AKRON          FAIR      43  39  86 SW9       29.68S
BURLINGTON     FAIR      48  46  93 S17       29.72F
WRAY           NOT AVBL
STERLING       FAIR      30  30 100 NW9       29.69R WCI  22
HOLYOKE        FOG       37  36  93 E8        29.70S VSB<1/4
FORT MORGAN    FAIR      38  34  84 SE5       29.69F
$$

COZ086-089-092>099-231400-
...SOUTHEAST COLORADO...

CITY           SKY/WX    TMP DP  RH WIND       PRES   REMARKS
PUEBLO         FAIR      37  29  72 CALM      29.72F
LA JUNTA       FAIR      52  46  80 SW6       29.71R
LAMAR          FAIR      54  47  77 S14       29.68F
SPRINGFIELD      N/A     45  44  97 S9        29.77F
$$



USA.gov is the U.S. government's official web portal to all federal, state and local government web resources and services.